This is the latest recevied weather packets stored in our database for station/object K8MUD. If no packets are shown the sender has not sent any weather packets the latest 10 day(s).
| Time | Temp. | Humidity | Pressure | Rain* | Wind** | Luminosity | Snow |
|---|---|---|---|---|---|---|---|
| 1777587689 | 10.56° C | 68% | 1013.3 hPa | 0 mm | - | - | - |
| 1777587389 | 10.56° C | 68% | 1013.3 hPa | 0 mm | - | - | - |
| 1777587089 | 10.56° C | 68% | 1013.1 hPa | 0 mm | - | - | - |
| 1777586789 | 10.56° C | 68% | 1013.1 hPa | 0 mm | - | - | - |
| 1777586489 | 10.56° C | 68% | 1013.2 hPa | 0 mm | - | - | - |
| 1777586189 | 10.56° C | 68% | 1013.1 hPa | 0 mm | - | - | - |
| 1777585889 | 10.56° C | 67% | 1013.1 hPa | 0 mm | - | - | - |
| 1777585589 | 10.56° C | 67% | 1012.9 hPa | 0 mm | - | - | - |
| 1777585289 | 11.11° C | 67% | 1012.9 hPa | 0 mm | - | - | - |
| 1777584989 | 11.11° C | 66% | 1012.9 hPa | 0 mm | - | - | - |
| 1777584688 | 11.11° C | 65% | 1013 hPa | 0 mm | - | - | - |
| 1777584388 | 11.67° C | 64% | 1013 hPa | 0 mm | - | - | - |
| 1777584088 | 11.67° C | 61% | 1013.1 hPa | 0 mm | - | - | - |
| 1777583788 | 12.78° C | 59% | 1013.1 hPa | 0 mm | - | - | - |
| 1777583488 | 13.33° C | 46% | 1013.2 hPa | 0 mm | - | - | - |
| 1777583188 | 12.78° C | 44% | 1013.1 hPa | 0 mm | - | - | - |
| 1777582888 | 13.33° C | 44% | 1013.1 hPa | 0 mm | - | - | - |
| 1777582588 | 12.78° C | 46% | 1013 hPa | 0 mm | - | - | - |
| 1777582288 | 12.78° C | 45% | 1013.1 hPa | 0 mm | - | - | - |
| 1777581988 | 12.78° C | 46% | 1013.1 hPa | 0 mm | - | - | - |
| 1777581688 | 12.78° C | 44% | 1013.1 hPa | 0 mm | - | - | - |
| 1777581388 | 12.78° C | 43% | 1013.1 hPa | 0 mm | - | - | - |
| 1777581088 | 12.78° C | 47% | 1013 hPa | 0 mm | - | - | - |
| 1777580788 | 12.78° C | 47% | 1013.1 hPa | 0 mm | - | - | - |
| 1777580487 | 12.78° C | 48% | 1013 hPa | 0 mm | - | - | - |
* Rain latest hour (hover to see other rain measurements)
** Current wind speed in m/s (hover to see current wind gust speed)